Location: Holyhead Bay
(53.3667°N, 4.6667°W)
Time: 00:23:44
(UTC+00:00)

IRIDIUM 33 DEB - Pass Details

Date: 29 September 2021
Orbit: 583 x 600 km, 86.4° (Epoch: 15 October)

Event Time Altitude Azimuth Distance (km) Brightness Sun altitude
Rises 02:40:41 0° 10° (N) 2,852 ? -30.3°
Reaches altitude 10° 02:44:49 10° 50° (NE) 1,936 ? -29.9°
Maximum altitude 02:45:47 11° 63° (ENE) 1,889 ? -29.8°
Drops below altitude 10° 02:46:46 10° 76° (ENE) 1,930 ? -29.7°
Sets 02:50:51 0° 116° (ESE) 2,817 ? -29.2°
